Home   Weather   Heide   Past weeks

Flag for Germany Past Weather in Heide, Schleswig-Holstein, Germany — Yesterday and Last 2 Weeks

46 °F


Feels Like: 45 °F
Forecast: 39 / 51 °F
Wind: 3 mph from East

Location: Hohn

Current Time: Oct 23, 2016 at 6:17:35 PM

Latest Report: Oct 23, 2016 at 5:20 PM

Visibility: 3 mi

Pressure: 29.98 "Hg

Humidity: 93%

Dew Point: 45 °F

Location of HeideLocation

Past Weather in Heide — Graph


Heide Temperature Yesterday

Maximum temperature yesterday: 48 °F (at 1:20 PM)
Minimum temperature yesterday: 41 °F (at 10:20 PM)
Average temperature yesterday: 45 °F

High & Low Weather Summary for the Past Weeks

High57 °F (Oct 18, 2:20 PM)100% (Oct 8, 10:20 PM)30.33 "Hg (Oct 8, 10:20 PM)
Low37 °F (Oct 19, 7:20 AM)58% (Oct 8, 4:20 PM)29.86 "Hg (Oct 15, 4:20 AM)
Average47 °F90%30.09 "Hg
* Reported Oct 8 4:20 PM — Oct 23 4:20 PM, Heide, Weather by CustomWeather, © 2016

Note: Actual official high and low records may vary slightly from our data, if they occured in-between our weather recording intervals... More about our weather records


Heide Weather History for the Previous 24 Hours

Scroll right to see more
Time TempWeatherWind HumidityBarometerVisibility
4:20 PM
Sun, Oct 23
46 °FCool.5 mph93%29.98 "Hg2 mi
3:20 PM48 °FCool.5 mph87%29.98 "Hg3 mi
2:20 PM48 °FCool.3 mph87%29.98 "Hg2 mi
1:20 PM46 °FCool.3 mph93%29.98 "Hg2 mi
12:20 PM46 °FCool.3 mph93%29.98 "Hg2 mi
11:20 AM45 °FQuite cool.3 mph100%29.98 "Hg3 mi
10:20 AM43 °FQuite cool.2 mph100%29.98 "Hg2 mi
9:20 AM41 °FQuite cool.2 mph100%29.98 "Hg2 mi
8:20 AM39 °FChilly.1 mph100%29.95 "Hg2 mi
7:20 AM39 °FChilly.2 mph100%29.95 "Hg1 mi
6:20 AM39 °FChilly.1 mph100%29.95 "Hg1 mi
5:20 AM41 °FQuite cool.1 mph100%29.95 "Hg3 mi
4:20 AM41 °FQuite cool.1 mph100%29.95 "Hg3 mi
3:20 AM41 °FQuite cool.2 mph100%29.95 "Hg3 mi
2:20 AM41 °FQuite cool.1 mph100%29.95 "Hg4 mi
1:20 AM41 °FQuite cool.No wind100%29.95 "Hg3 mi
12:20 AM41 °FQuite cool.1 mph100%29.95 "Hg3 mi
11:20 PM
Sat, Oct 22
41 °FQuite cool.No wind100%29.95 "Hg3 mi
10:20 PM41 °FQuite cool.3 mph100%29.98 "Hg3 mi
9:20 PM43 °FQuite cool.1 mph93%29.98 "Hg3 mi
8:20 PM43 °FQuite cool.2 mph93%29.98 "Hg3 mi
7:20 PM43 °FQuite cool.3 mph93%29.95 "Hg3 mi
6:20 PM43 °FQuite cool.6 mph93%29.95 "Hg3 mi
Weather by CustomWeather, © 2016

See weather overviewHow to use our weather pages